Location: Newark
(52.3044°N, 5.0150°E)
Time: 09:36:08
(UTC+00:00)

ISS - Visible Passes

Search period start: 16 December 2019 00:00
Search period end: 26 December 2019 00:00
Orbit: 411 x 421 km, 51.6° (Epoch: 16 December)

Date Brightness Start Highest point End Pass type
(mag) Time Alt. Az. Time Alt. Az. Time Alt. Az.
21 Dec -0.7 06:56:07 10° SSW 06:58:32 19° SE 07:00:58 10° E visible
22 Dec -0.6 06:08:32 10° S 06:10:12 13° SE 06:11:51 10° ESE visible
23 Dec -2.0 06:54:48 10° SW 06:57:51 34° SSE 07:00:55 10° E visible
24 Dec -1.5 06:06:37 10° SSW 06:09:24 25° SSE 06:12:12 10° E visible
25 Dec -1.1 05:18:52 11° S 05:21:00 18° SE 05:23:20 10° E visible
25 Dec -3.1 06:53:59 10° WSW 06:57:15 56° SSE 07:00:32 10° E visible
